COSMOS 2395 (GLONASS)

Satellite information

Favourite Embed

Satellite Type and Status

PAYLOADIN ORBIT

Key statistics

Satellite COSMOS 2395 (GLONASS) at a glance.

Uptime

8175

Days in orbit

Revolutions

≈ 2.1

Per day

Orbit

MEO

Medium Earth Orbit

Inclination

65.7

Latest

Satellite identification and parameters

Extended collection of information and parameters for COSMOS 2395 (GLONASS).

Object identification

Identified? True

Debris? False

Object name: COSMOS 2395 (GLONASS)

International designator: 2002-060C

Object number (NORAD): 27619

Object ID (CCSDS): 27619

Country: COMMONWEALTH OF INDEPENDENT STATES (CIS)

Current information (Y/N): Y

RCS size: LARGE

Orbital parameters

Period: 675.727 minutes

Inclination: 65.6619 deg

SMA: 25507.878 km

Apoapsis: 19159.207 km

Periapsis: 19100.279 km

RAAN: 329.3914 deg

Eccentricy: 0.0011551

Argument of periapsis: 252.3864 deg

Mean anomaly: 283.5101 deg

Mean motion: 2.13103833 rev/day

Mean motion (dot): -0.00000047 rev/day2

B* drag term: 0.0 1/REarth

Two-line elements (TLE)

Creation date: May 10, 2025, 5:27 p.m.

Reference frame: TEME

Reference center: EARTH

Epoch: May 10, 2025, 3:57 a.m. UTC

TLE line 0: 0 COSMOS 2395 (GLONASS)

TLE line 1: 1 27619U 02060C 25130.16463562 -.00000047 00000-0 00000-0 0 9999

TLE line 2: 2 27619 65.6619 329.3914 0011551 252.3864 283.5101 2.13103833174055

Live tracking on map

Real-time ground track for satellite COSMOS 2395 (GLONASS).

In-orbit conjunctions

There are no conjunctions computed for COSMOS 2395 (GLONASS), at the moment. Check back to stay up to date, as we update our databases every day.

Go to all conjunctions

Associated space launch

GLONASS navigation satellites

COSMOS 2395 (GLONASS) was lifted into orbit during the mission ‘Proton-K/DM-2M | Uragan 80 to 82’, on board a Proton-K/DM-2M space rocket.

The launch took place on Dec. 25, 2002, 7:37 a.m. from 81/23 (81L).

For more information about the launch, click the button.

Launch to space Proton-K/DM-2M | Uragan 80 to 82
Proton-K/DM-2M | Uragan 80 to 82

Agency: N/A

Status: Launch Successful

Launch date: Dec. 25, 2002, 7:37 a.m. UTC

Rocket: Proton-K/DM-2M

Launch pad: 81/23 (81L)

Location: Baikonur Cosmodrome, Republic of Kazakhstan

...

Latest news about this satellite

There are no fresh news available about this satellite. Check back as we update our databases every day.


Newsletter sign-up

Weekly statistics, charts and insights to help you stay on top of the space industry.